Location: Puketoi
(40.5833°S, 176.0167°E)
Time: 15:19:00
(UTC+00:00)

Cosmos 1943 Rocket - Pass Details

Date: 08 February 2023
Orbit: 811 x 844 km, 71.0° (Epoch: 22 March)

Event Time Altitude Azimuth Distance (km) Brightness Sun altitude
Exits shadow 12:51:08 17° 241° (WSW) 1,959 4.3 -34.2°
Maximum altitude 12:51:56 18° 231° (SW) 1,933 4.3 -34.2°
Drops below altitude 10° 12:55:40 10° 188° (S) 2,434 5.3 -34.1°
Sets 12:58:56 0° 169° (S) 3,371 6.4 -34.0°
